Time,TemperatureF,DewpointF,PressureIn,WindDirection,WindDirectionDegrees,WindSpeedMPH,WindSpeedGustMPH,Humidity,HourlyPrecipIn,Conditions,Clouds,dailyrainin,SoftwareType,DateUTC
2013-06-12 00:03:00,75.0,-99.9,-100.00,South,171,0.0,1.0,-999,0.00,,,0.00,,2013-06-12 05:03:00,
2013-06-12 00:12:00,75.0,-99.9,-100.00,South,171,0.0,1.0,-999,0.00,,,0.00,,2013-06-12 05:12:00,
2013-06-12 00:22:00,75.0,-99.9,-100.00,South,171,0.0,1.0,-999,0.00,,,0.00,,2013-06-12 05:22:00,
2013-06-12 00:32:00,75.0,-99.9,-100.00,South,185,1.0,1.0,-999,0.00,,,0.00,,2013-06-12 05:32:00,
2013-06-12 00:43:00,75.0,-99.9,-100.00,South,185,1.0,1.0,-999,0.00,,,0.00,,2013-06-12 05:43:00,
2013-06-12 00:52:00,75.0,-99.9,-100.00,South,185,1.0,1.0,-999,0.00,,,0.00,,2013-06-12 05:52:00,
2013-06-12 01:02:00,75.0,-99.9,-100.00,South,173,1.0,2.0,-999,0.00,,,0.00,,2013-06-12 06:02:00,
2013-06-12 01:12:00,75.0,-99.9,-100.00,South,173,1.0,2.0,-999,0.00,,,0.00,,2013-06-12 06:12:00,
2013-06-12 01:22:00,75.0,-99.9,-100.00,South,173,1.0,2.0,-999,0.00,,,0.00,,2013-06-12 06:22:00,
2013-06-12 01:32:00,74.0,-99.9,-100.00,South,177,0.0,0.0,-999,0.00,,,0.00,,2013-06-12 06:32:00,
2013-06-12 01:42:00,74.0,-99.9,-100.00,South,177,0.0,0.0,-999,0.00,,,0.00,,2013-06-12 06:42:00,
2013-06-12 01:52:00,74.0,-99.9,-100.00,South,177,0.0,0.0,-999,0.00,,,0.00,,2013-06-12 06:52:00,
2013-06-12 02:02:00,75.0,-99.9,-100.00,South,175,0.0,1.0,-999,0.00,,,0.00,,2013-06-12 07:02:00,
2013-06-12 02:12:00,75.0,-99.9,-100.00,South,175,0.0,1.0,-999,0.00,,,0.00,,2013-06-12 07:12:00,
2013-06-12 02:23:00,75.0,-99.9,-100.00,South,175,0.0,1.0,-999,0.00,,,0.00,,2013-06-12 07:23:00,
2013-06-12 02:33:00,76.0,-99.9,-100.00,ESE,109,3.0,4.0,-999,0.00,,,0.00,,2013-06-12 07:33:00,
2013-06-12 02:43:00,76.0,-99.9,-100.00,ESE,109,3.0,4.0,-999,0.00,,,0.00,,2013-06-12 07:43:00,
2013-06-12 02:53:00,76.0,-99.9,-100.00,ESE,109,3.0,4.0,-999,0.00,,,0.00,,2013-06-12 07:53:00,
2013-06-12 03:02:00,75.0,-99.9,-100.00,SE,142,0.0,1.0,-999,0.00,,,0.00,,2013-06-12 08:02:00,
2013-06-12 03:12:00,75.0,-99.9,-100.00,SE,142,0.0,1.0,-999,0.00,,,0.00,,2013-06-12 08:12:00,
2013-06-12 03:22:00,75.0,-99.9,-100.00,SE,142,0.0,1.0,-999,0.00,,,0.00,,2013-06-12 08:22:00,
2013-06-12 03:33:00,75.0,-99.9,-100.00,ESE,108,1.0,3.0,-999,0.00,,,0.00,,2013-06-12 08:33:00,
2013-06-12 03:43:00,75.0,-99.9,-100.00,ESE,108,1.0,3.0,-999,0.00,,,0.00,,2013-06-12 08:43:00,
2013-06-12 03:53:00,75.0,-99.9,-100.00,ESE,108,1.0,3.0,-999,0.00,,,0.00,,2013-06-12 08:53:00,
2013-06-12 04:02:00,73.0,-99.9,-100.00,SSE,149,1.0,2.0,-999,0.00,,,0.00,,2013-06-12 09:02:00,
2013-06-12 04:12:00,73.0,-99.9,-100.00,SSE,149,1.0,2.0,-999,0.00,,,0.00,,2013-06-12 09:12:00,
2013-06-12 04:22:00,73.0,-99.9,-100.00,SSE,149,1.0,2.0,-999,0.00,,,0.00,,2013-06-12 09:22:00,
2013-06-12 04:34:00,73.0,-99.9,-100.00,SE,137,1.0,3.0,-999,0.00,,,0.00,,2013-06-12 09:34:00,
2013-06-12 04:43:00,73.0,-99.9,-100.00,SE,137,1.0,3.0,-999,0.00,,,0.00,,2013-06-12 09:43:00,
2013-06-12 04:53:00,73.0,-99.9,-100.00,SE,137,1.0,3.0,-999,0.00,,,0.00,,2013-06-12 09:53:00,
2013-06-12 05:02:00,72.0,-99.9,-100.00,ENE,65,0.0,1.0,-999,0.00,,,0.00,,2013-06-12 10:02:00,
2013-06-12 05:12:00,72.0,-99.9,-100.00,ENE,65,0.0,1.0,-999,0.00,,,0.00,,2013-06-12 10:12:00,
2013-06-12 05:23:00,72.0,-99.9,-100.00,ENE,65,0.0,1.0,-999,0.00,,,0.00,,2013-06-12 10:23:00,
2013-06-12 05:33:00,71.0,-99.9,-100.00,SSW,193,1.0,3.0,-999,0.00,,,0.00,,2013-06-12 10:33:00,
2013-06-12 05:43:00,71.0,-99.9,-100.00,SSW,193,1.0,3.0,-999,0.00,,,0.00,,2013-06-12 10:43:00,
2013-06-12 05:53:00,71.0,-99.9,-100.00,SSW,193,1.0,3.0,-999,0.00,,,0.00,,2013-06-12 10:53:00,
2013-06-12 06:02:00,72.0,-99.9,-100.00,SSW,203,1.0,2.0,-999,0.00,,,0.00,,2013-06-12 11:02:00,
2013-06-12 06:12:00,72.0,-99.9,-100.00,SSW,203,1.0,2.0,-999,0.00,,,0.00,,2013-06-12 11:12:00,
2013-06-12 06:24:00,72.0,-99.9,-100.00,SSW,203,1.0,2.0,-999,0.00,,,0.00,,2013-06-12 11:24:00,
2013-06-12 06:34:00,71.0,-99.9,-100.00,SE,138,2.0,3.0,-999,0.00,,,0.00,,2013-06-12 11:34:00,
2013-06-12 06:43:00,71.0,-99.9,-100.00,SE,138,2.0,3.0,-999,0.00,,,0.00,,2013-06-12 11:43:00,
2013-06-12 06:54:00,71.0,-99.9,-100.00,SE,138,2.0,3.0,-999,0.00,,,0.00,,2013-06-12 11:54:00,
2013-06-12 07:02:00,73.0,-99.9,-100.00,South,176,0.0,1.0,-999,0.00,,,0.00,,2013-06-12 12:02:00,
2013-06-12 07:12:00,73.0,-99.9,-100.00,South,176,0.0,1.0,-999,0.00,,,0.00,,2013-06-12 12:12:00,
2013-06-12 07:23:00,73.0,-99.9,-100.00,South,176,0.0,1.0,-999,0.00,,,0.00,,2013-06-12 12:23:00,
2013-06-12 07:34:00,74.0,-99.9,-100.00,SSE,157,0.0,1.0,-999,0.00,,,0.00,,2013-06-12 12:34:00,
2013-06-12 07:43:00,74.0,-99.9,-100.00,SSE,157,0.0,1.0,-999,0.00,,,0.00,,2013-06-12 12:43:00,
2013-06-12 07:53:00,74.0,-99.9,-100.00,SSE,157,0.0,1.0,-999,0.00,,,0.00,,2013-06-12 12:53:00,
2013-06-12 08:02:00,74.0,-99.9,-100.00,SSE,155,1.0,3.0,-999,0.00,,,0.00,,2013-06-12 13:02:00,
2013-06-12 08:12:00,74.0,-99.9,-100.00,SSE,155,1.0,3.0,-999,0.00,,,0.00,,2013-06-12 13:12:00,
2013-06-12 08:22:00,74.0,-99.9,-100.00,SSE,155,1.0,3.0,-999,0.00,,,0.00,,2013-06-12 13:22:00,
2013-06-12 08:33:00,77.0,-99.9,-100.00,SE,141,3.0,4.0,-999,0.00,,,0.00,,2013-06-12 13:33:00,
2013-06-12 08:43:00,77.0,-99.9,-100.00,SE,141,3.0,4.0,-999,0.00,,,0.00,,2013-06-12 13:43:00,
2013-06-12 08:53:00,77.0,-99.9,-100.00,SE,141,3.0,4.0,-999,0.00,,,0.00,,2013-06-12 13:53:00,
2013-06-12 09:02:00,78.0,-99.9,-100.00,SE,143,2.0,6.0,-999,0.00,,,0.00,,2013-06-12 14:02:00,
2013-06-12 09:11:00,78.0,-99.9,-100.00,SE,143,2.0,6.0,-999,0.00,,,0.00,,2013-06-12 14:11:00,
2013-06-12 09:24:00,78.0,-99.9,-100.00,SE,143,2.0,6.0,-999,0.00,,,0.00,,2013-06-12 14:24:00,
2013-06-12 09:33:00,82.0,-99.9,-100.00,SSE,153,2.0,5.0,-999,0.00,,,0.00,,2013-06-12 14:33:00,
2013-06-12 09:43:00,82.0,-99.9,-100.00,SSE,153,2.0,5.0,-999,0.00,,,0.00,,2013-06-12 14:43:00,
2013-06-12 09:53:00,82.0,-99.9,-100.00,SSE,153,2.0,5.0,-999,0.00,,,0.00,,2013-06-12 14:53:00,
2013-06-12 10:02:00,84.0,-99.9,-100.00,SSE,168,1.0,3.0,-999,0.00,,,0.00,,2013-06-12 15:02:00,
2013-06-12 10:12:00,84.0,-99.9,-100.00,SSE,168,1.0,3.0,-999,0.00,,,0.00,,2013-06-12 15:12:00,
2013-06-12 10:24:00,84.0,-99.9,-100.00,SSE,168,1.0,3.0,-999,0.00,,,0.00,,2013-06-12 15:24:00,
2013-06-12 10:33:00,86.0,-99.9,-100.00,SSW,201,4.0,10.0,-999,0.00,,,0.00,,2013-06-12 15:33:00,
2013-06-12 10:43:00,86.0,-99.9,-100.00,SSW,201,4.0,10.0,-999,0.00,,,0.00,,2013-06-12 15:43:00,
2013-06-12 10:52:00,86.0,-99.9,-100.00,SSW,201,4.0,10.0,-999,0.00,,,0.00,,2013-06-12 15:52:00,
2013-06-12 11:02:00,86.0,-99.9,-100.00,SSW,211,6.0,11.0,-999,0.00,,,0.00,,2013-06-12 16:02:00,
2013-06-12 11:12:00,86.0,-99.9,-100.00,SSW,211,6.0,11.0,-999,0.00,,,0.00,,2013-06-12 16:12:00,
2013-06-12 11:22:00,86.0,-99.9,-100.00,SSW,211,6.0,11.0,-999,0.00,,,0.00,,2013-06-12 16:22:00,
2013-06-12 11:33:00,88.0,-99.9,-100.00,SSW,193,3.0,7.0,-999,0.00,,,0.00,,2013-06-12 16:33:00,
2013-06-12 11:43:00,88.0,-99.9,-100.00,SSW,193,3.0,7.0,-999,0.00,,,0.00,,2013-06-12 16:43:00,
2013-06-12 11:53:00,88.0,-99.9,-100.00,SSW,193,3.0,7.0,-999,0.00,,,0.00,,2013-06-12 16:53:00,
2013-06-12 12:02:00,88.0,-99.9,-100.00,South,174,4.0,7.0,-999,0.00,,,0.00,,2013-06-12 17:02:00,
2013-06-12 12:12:00,88.0,-99.9,-100.00,South,174,4.0,7.0,-999,0.00,,,0.00,,2013-06-12 17:12:00,
2013-06-12 12:23:00,88.0,-99.9,-100.00,South,174,4.0,7.0,-999,0.00,,,0.00,,2013-06-12 17:23:00,
2013-06-12 12:33:00,91.0,-99.9,-100.00,SSW,206,5.0,13.0,-999,0.00,,,0.00,,2013-06-12 17:33:00,
2013-06-12 12:43:00,91.0,-99.9,-100.00,SSW,206,5.0,13.0,-999,0.00,,,0.00,,2013-06-12 17:43:00,
2013-06-12 12:52:00,91.0,-99.9,-100.00,SSW,206,5.0,13.0,-999,0.00,,,0.00,,2013-06-12 17:52:00,
2013-06-12 13:02:00,91.0,-99.9,-100.00,SSW,199,7.0,16.0,-999,0.00,,,0.00,,2013-06-12 18:02:00,
2013-06-12 13:12:00,91.0,-99.9,-100.00,SSW,199,7.0,16.0,-999,0.00,,,0.00,,2013-06-12 18:12:00,
2013-06-12 13:22:00,91.0,-99.9,-100.00,SSW,199,7.0,16.0,-999,0.00,,,0.00,,2013-06-12 18:22:00,
2013-06-12 13:33:00,92.0,-99.9,-100.00,SSW,202,5.0,7.0,-999,0.00,,,0.00,,2013-06-12 18:33:00,
2013-06-12 13:43:00,92.0,-99.9,-100.00,SSW,202,5.0,7.0,-999,0.00,,,0.00,,2013-06-12 18:43:00,
2013-06-12 13:53:00,92.0,-99.9,-100.00,SSW,202,5.0,7.0,-999,0.00,,,0.00,,2013-06-12 18:53:00,
2013-06-12 14:02:00,94.0,-99.9,-100.00,SSW,213,8.0,20.0,-999,0.00,,,0.00,,2013-06-12 19:02:00,
2013-06-12 14:12:00,94.0,-99.9,-100.00,SSW,213,8.0,20.0,-999,0.00,,,0.00,,2013-06-12 19:12:00,
2013-06-12 14:22:00,94.0,-99.9,-100.00,SSW,213,8.0,20.0,-999,0.00,,,0.00,,2013-06-12 19:22:00,
2013-06-12 14:33:00,95.0,-99.9,-100.00,SSW,212,11.0,17.0,-999,0.00,,,0.00,,2013-06-12 19:33:00,
2013-06-12 14:43:00,95.0,-99.9,-100.00,SSW,212,11.0,17.0,-999,0.00,,,0.00,,2013-06-12 19:43:00,
2013-06-12 14:52:00,95.0,-99.9,-100.00,SSW,212,11.0,17.0,-999,0.00,,,0.00,,2013-06-12 19:52:00,
2013-06-12 15:02:00,95.0,-99.9,-100.00,SSW,211,10.0,23.0,-999,0.00,,,0.00,,2013-06-12 20:02:00,
2013-06-12 15:12:00,95.0,-99.9,-100.00,SSW,211,10.0,23.0,-999,0.00,,,0.00,,2013-06-12 20:12:00,
2013-06-12 15:22:00,95.0,-99.9,-100.00,SSW,211,10.0,23.0,-999,0.00,,,0.00,,2013-06-12 20:22:00,
2013-06-12 15:33:00,95.0,-99.9,-100.00,SW,219,11.0,16.0,-999,0.00,,,0.00,,2013-06-12 20:33:00,
2013-06-12 15:43:00,95.0,-99.9,-100.00,SW,219,11.0,16.0,-999,0.00,,,0.00,,2013-06-12 20:43:00,
2013-06-12 15:54:00,95.0,-99.9,-100.00,SW,219,11.0,16.0,-999,0.00,,,0.00,,2013-06-12 20:54:00,
2013-06-12 16:02:00,94.0,-99.9,-100.00,SW,229,14.0,20.0,-999,0.00,,,0.00,,2013-06-12 21:02:00,
2013-06-12 16:12:00,94.0,-99.9,-100.00,SW,229,14.0,20.0,-999,0.00,,,0.00,,2013-06-12 21:12:00,
2013-06-12 16:22:00,94.0,-99.9,-100.00,SW,229,14.0,20.0,-999,0.00,,,0.00,,2013-06-12 21:22:00,
2013-06-12 16:33:00,94.0,-99.9,-100.00,SW,223,12.0,16.0,-999,0.00,,,0.00,,2013-06-12 21:33:00,
2013-06-12 16:43:00,94.0,-99.9,-100.00,SW,223,12.0,16.0,-999,0.00,,,0.00,,2013-06-12 21:43:00,
2013-06-12 16:53:00,94.0,-99.9,-100.00,SW,223,12.0,16.0,-999,0.00,,,0.00,,2013-06-12 21:53:00,
2013-06-12 17:01:00,92.0,-99.9,-100.00,WSW,241,17.0,23.0,-999,0.00,,,0.00,,2013-06-12 22:01:00,
2013-06-12 17:11:00,92.0,-99.9,-100.00,WSW,241,17.0,23.0,-999,0.00,,,0.00,,2013-06-12 22:11:00,
2013-06-12 17:22:00,92.0,-99.9,-100.00,WSW,241,17.0,23.0,-999,0.00,,,0.00,,2013-06-12 22:22:00,
2013-06-12 17:33:00,91.0,-99.9,-100.00,SW,233,14.0,20.0,-999,0.00,,,0.00,,2013-06-12 22:33:00,
2013-06-12 17:43:00,91.0,-99.9,-100.00,SW,233,14.0,20.0,-999,0.00,,,0.00,,2013-06-12 22:43:00,
2013-06-12 17:53:00,91.0,-99.9,-100.00,SW,233,14.0,20.0,-999,0.00,,,0.00,,2013-06-12 22:53:00,
2013-06-12 18:02:00,90.0,-99.9,-100.00,SW,235,12.0,17.0,-999,0.00,,,0.00,,2013-06-12 23:02:00,
2013-06-12 18:12:00,90.0,-99.9,-100.00,SW,235,12.0,17.0,-999,0.00,,,0.00,,2013-06-12 23:12:00,
2013-06-12 18:22:00,90.0,-99.9,-100.00,SW,235,12.0,17.0,-999,0.00,,,0.00,,2013-06-12 23:22:00,
2013-06-12 18:32:00,92.0,-99.9,-100.00,SW,226,11.0,15.0,-999,0.00,,,0.00,,2013-06-12 23:32:00,
2013-06-12 18:43:00,92.0,-99.9,-100.00,SW,226,11.0,15.0,-999,0.00,,,0.00,,2013-06-12 23:43:00,
2013-06-12 18:53:00,92.0,-99.9,-100.00,SW,226,11.0,15.0,-999,0.00,,,0.00,,2013-06-12 23:53:00,
2013-06-12 19:02:00,90.0,-99.9,-100.00,WSW,238,8.0,14.0,-999,0.00,,,0.00,,2013-06-13 00:02:00,
2013-06-12 19:12:00,90.0,-99.9,-100.00,WSW,238,8.0,14.0,-999,0.00,,,0.00,,2013-06-13 00:12:00,
2013-06-12 19:22:00,90.0,-99.9,-100.00,WSW,238,8.0,14.0,-999,0.00,,,0.00,,2013-06-13 00:22:00,
2013-06-12 19:33:00,91.0,-99.9,-100.00,WSW,253,10.0,12.0,-999,0.00,,,0.00,,2013-06-13 00:33:00,
2013-06-12 19:43:00,91.0,-99.9,-100.00,WSW,253,10.0,12.0,-999,0.00,,,0.00,,2013-06-13 00:43:00,
2013-06-12 19:52:00,91.0,-99.9,-100.00,WSW,253,10.0,12.0,-999,0.00,,,0.00,,2013-06-13 00:52:00,
2013-06-12 20:02:00,90.0,-99.9,-100.00,West,259,11.0,16.0,-999,0.00,,,0.00,,2013-06-13 01:02:00,
2013-06-12 20:12:00,90.0,-99.9,-100.00,West,259,11.0,16.0,-999,0.00,,,0.00,,2013-06-13 01:12:00,
2013-06-12 20:22:00,90.0,-99.9,-100.00,West,259,11.0,16.0,-999,0.00,,,0.00,,2013-06-13 01:22:00,
2013-06-12 20:33:00,88.0,-99.9,-100.00,West,278,5.0,9.0,-999,0.00,,,0.00,,2013-06-13 01:33:00,
2013-06-12 20:43:00,88.0,-99.9,-100.00,West,278,5.0,9.0,-999,0.00,,,0.00,,2013-06-13 01:43:00,
2013-06-12 20:53:00,88.0,-99.9,-100.00,West,278,5.0,9.0,-999,0.00,,,0.00,,2013-06-13 01:53:00,
2013-06-12 21:02:00,87.0,-99.9,-100.00,WSW,256,7.0,10.0,-999,0.00,,,0.00,,2013-06-13 02:02:00,
2013-06-12 21:12:00,87.0,-99.9,-100.00,WSW,256,7.0,10.0,-999,0.00,,,0.00,,2013-06-13 02:12:00,
2013-06-12 21:22:00,87.0,-99.9,-100.00,WSW,256,7.0,10.0,-999,0.00,,,0.00,,2013-06-13 02:22:00,
2013-06-12 21:33:00,85.0,-99.9,-100.00,West,260,7.0,9.0,-999,0.00,,,0.00,,2013-06-13 02:33:00,
2013-06-12 21:43:00,85.0,-99.9,-100.00,West,260,7.0,9.0,-999,0.00,,,0.00,,2013-06-13 02:43:00,
2013-06-12 21:52:00,85.0,-99.9,-100.00,West,260,7.0,9.0,-999,0.00,,,0.00,,2013-06-13 02:52:00,
2013-06-12 22:02:00,83.0,-99.9,-100.00,WSW,251,4.0,6.0,-999,0.00,,,0.00,,2013-06-13 03:02:00,
2013-06-12 22:12:00,83.0,-99.9,-100.00,WSW,251,4.0,6.0,-999,0.00,,,0.00,,2013-06-13 03:12:00,
2013-06-12 22:22:00,83.0,-99.9,-100.00,WSW,251,4.0,6.0,-999,0.00,,,0.00,,2013-06-13 03:22:00,
2013-06-12 22:33:00,82.0,-99.9,-100.00,WSW,242,5.0,6.0,-999,0.00,,,0.00,,2013-06-13 03:33:00,
2013-06-12 22:43:00,82.0,-99.9,-100.00,WSW,242,5.0,6.0,-999,0.00,,,0.00,,2013-06-13 03:43:00,
2013-06-12 22:52:00,82.0,-99.9,-100.00,WSW,242,5.0,6.0,-999,0.00,,,0.00,,2013-06-13 03:52:00,
2013-06-12 23:01:00,85.0,-99.9,-100.00,NW,308,13.0,26.0,-999,0.00,,,0.00,,2013-06-13 04:01:00,
2013-06-12 23:12:00,85.0,-99.9,-100.00,NW,308,13.0,26.0,-999,0.00,,,0.00,,2013-06-13 04:12:00,
2013-06-12 23:23:00,85.0,-99.9,-100.00,NW,308,13.0,26.0,-999,0.00,,,0.00,,2013-06-13 04:23:00,
2013-06-12 23:33:00,82.0,-99.9,-100.00,NW,321,18.0,26.0,-999,0.00,,,0.00,,2013-06-13 04:33:00,
2013-06-12 23:43:00,82.0,-99.9,-100.00,NW,321,18.0,26.0,-999,0.00,,,0.00,,2013-06-13 04:43:00,
2013-06-12 23:54:00,82.0,-99.9,-100.00,NW,321,18.0,26.0,-999,0.00,,,0.00,,2013-06-13 04:54:00,